GW6903 Weather Reports


time (UTC)temp
C
wind
direction
speed
KPH
gust
KPH
rain 1hr
cm
rain 24hr
cm
rain mn
cm
humidity
%
barometer
mb
20260504200016 14 203 1.6 3.2 0.00 0.43 0.43 95 1011.2
20260504193016 14 203 3.2 8.0 0.00 0.43 0.43 94 1011.0
20260504190116 15 203 1.6 6.4 0.00 0.43 0.43 94 1010.7
20260504183016 15 90 0.0 1.6 0.00 0.43 0.43 93 1010.3
20260504180016 15 68 1.6 4.8 0.00 0.43 0.43 92 1010.2
20260504173015 16 68 1.6 8.0 0.00 0.46 0.43 92 1010.1
20260504050016 11 225 6.4 14.5 0.00 0.10 0.00 95 1012.6
20260504043016 11 225 3.2 9.7 0.00 0.10 0.00 95 1012.9
20260504040016 11 225 4.8 11.3 0.00 0.10 0.00 96 1012.9
20260504033016 12 225 1.6 9.7 0.00 0.10 0.00 95 1013.1
20260504030016 12 203 1.6 4.8 0.00 0.10 0.00 95 1013.1
20260504023016 12 180 1.6 8.0 0.00 0.10 0.00 95 1013.2
20260504020017 12 225 1.6 3.2 0.00 0.10 0.00 95 1013.3
20260504013016 12 203 3.2 8.0 0.00 0.10 0.00 95 1013.6
20260504010016 12 248 3.2 8.0 0.00 0.10 0.00 95 1013.8
20260504003036 12 225 4.8 9.7 0.00 0.10 0.00 94 1014.0
20260504000016 12 225 3.2 9.7 0.00 0.10 0.00 95 1014.1
20260503233016 12 203 1.6 6.4 0.00 0.10 0.00 94 1014.4
20260503230016 13 203 0.0 3.2 0.00 0.10 0.00 94 1014.9
20260503223016 13 203 1.6 6.4 0.00 0.10 0.00 94 1015.1
20260503220016 13 180 1.6 4.8 0.00 0.10 0.10 94 1015.3
20260503213016 13 203 1.6 3.2 0.00 0.10 0.10 94 1015.2
20260503210016 13 203 0.0 3.2 0.00 0.10 0.10 93 1015.4
20260503203016 13 203 0.0 1.6 0.00 0.10 0.10 93 1015.2